PORT of KOPER

País: Slovenia País: Slovenia [SI]
Latitud / Longitud: 45.56217° / 13.736355° Verlo en el mapa
Hora local:  [UTC +3]
UN/LOCODE: SIKOP
Barcos actualmente en puerto: 17
Llegadas previstas: 11

Ultimas llegadas y salidas


Nombre del barco
Llegada (UTC)
Llegada (LT)
Salida (UTC)
Salida (LT)
Vessel Type: Remolcador, Prácticos  DRAVO COSTA DORADA 2014-09-02 05:52:00 2014-09-02 08:52:00
Vessel Type: Remolcador, Prácticos  DRAVO COSTA DORADA 2014-09-02 04:21:00 2014-09-02 07:21:00 2014-09-02 05:47:00 2014-09-02 08:47:00
Vessel Type: Barco de pasaje  CELEBRITY SILHOUETTE 2014-09-02 05:14:00 2014-09-02 08:14:00
Vessel Type: Remolcador, Prácticos  PILOTI KP 2 2014-09-02 04:25:00 2014-09-02 07:25:00
Vessel Type: Remolcador, Prácticos  PILOTI KP 2 2014-08-31 19:25:00 2014-08-31 22:25:00 2014-09-02 04:22:00 2014-09-02 07:22:00
Vessel Type: Remolcador, Prácticos  DRAVO COSTA DORADA 2014-09-02 01:16:00 2014-09-02 04:16:00 2014-09-02 04:14:00 2014-09-02 07:14:00
Vessel Type: Remolcador, Prácticos  DRAVO COSTA DORADA 2014-09-01 23:47:00 2014-09-02 02:47:00 2014-09-02 01:09:00 2014-09-02 04:09:00
Vessel Type: Remolcador, Prácticos  DRAVO COSTA DORADA 2014-09-01 21:13:00 2014-09-02 00:13:00 2014-09-01 23:39:00 2014-09-02 02:39:00
Vessel Type: Remolcador, Prácticos  DRAVO COSTA DORADA 2014-09-01 19:40:00 2014-09-01 22:40:00 2014-09-01 21:06:00 2014-09-02 00:06:00
Vessel Type: Yates y Otros  G.DALLAPORTA 2014-09-01 19:41:00 2014-09-01 22:41:00 2014-09-01 20:17:00 2014-09-01 23:17:00

Llegadas previstas


Nombre del barco
Scheduled Arrival (UTC)
Llegada prevista (Hora Local)
Llegada estimada (UTC)
Llegada estimada (local)
Vessel Type: Barcos-cisterna  BYZANTION 2014-09-02 06:00:00 2014-09-02 09:00:00 2014-09-02 04:49:00 2014-09-02 07:49:00
Vessel Type: Cabotaje  UNI PHOENIX 2014-09-02 11:00:00 2014-09-02 14:00:00
Vessel Type: Cabotaje  AENNE RICKMERS 2014-09-02 11:00:00 2014-09-02 14:00:00 2014-09-02 08:49:00 2014-09-02 11:49:00
Vessel Type: Cabotaje  NYFJELL 2014-09-02 14:00:00 2014-09-02 17:00:00
Vessel Type: Barcos-cisterna  MAERSK ETIENNE 2014-09-02 20:30:00 2014-09-02 23:30:00 2014-09-02 21:12:00 2014-09-03 00:12:00
Vessel Type: Cabotaje  DESPINA 2014-09-03 02:00:00 2014-09-03 05:00:00 2014-09-03 03:10:00 2014-09-03 06:10:00
Vessel Type: Cabotaje  CARTEN MARIA 2014-09-03 06:00:00 2014-09-03 09:00:00 2014-09-15 10:16:00 2014-09-15 13:16:00
Vessel Type: Cabotaje  LE MANS EXPRESS 2014-09-03 21:00:00 2014-09-04 00:00:00 2014-09-03 19:04:00 2014-09-03 22:04:00
Vessel Type: Barcos-cisterna  INYALA 2014-09-04 12:00:00 2014-09-04 15:00:00 2014-09-04 14:18:00 2014-09-04 17:18:00
Vessel Type: Cabotaje  ANGELINA 2014-09-06 11:00:00 2014-09-06 14:00:00 2014-09-06 16:48:00 2014-09-06 19:48:00

Wind Forecast


    
Hora (UTC)
Velocidad
Direction
Temperature
2014-09-02 06:00:00 20 knots 45° 20°C
2014-09-02 09:00:00 19 knots 42° 21°C
2014-09-02 12:00:00 22 knots 43° 22°C
2014-09-02 15:00:00 22 knots 44° 22°C
2014-09-02 18:00:00 19 knots 46° 21°C
2014-09-02 21:00:00 17 knots 55° 21°C
2014-09-03 00:00:00 16 knots 52° 21°C
2014-09-03 03:00:00 17 knots 54° 21°C
2014-09-03 06:00:00 17 knots 55° 21°C
2014-09-03 09:00:00 15 knots 47° 25°C
2014-09-03 12:00:00 14 knots 51° 27°C
2014-09-03 15:00:00 14 knots 53° 27°C
2014-09-03 18:00:00 15 knots 57° 25°C
2014-09-03 21:00:00 16 knots 54° 24°C
2014-09-04 00:00:00 15 knots 60° 22°C
2014-09-04 03:00:00 17 knots 60° 22°C
2014-09-04 06:00:00 16 knots 59° 21°C